Temperature
30 30 30 31 32 33 33 33 33 34 35 34 33 33 34 34 33 32 31 29 27 26 25 24 22 21 20 20 19 19 19 19 18 18 18 18 18 18 18 18 18 18 18 18
30 30 31 33 33 33 32 32 32 34 35 34 33 33 34 34 33 32 31 29 28 26 25 23 22 21 20 20 19 19 19 19 19 18 18 18 18 18 18 18 18 18 18 18
30 32 33 33 32 32 32 32 32 33 34 34 33 32 32 33 32 32 31 30 28 26 25 23 22 21 20 20 19 19 19 19 19 18 18 18 18 18 18 18 18 18 18 18
31 32 33 32 32 32 31 33 33 33 32 32 32 31 31 31 31 31 31 30 28 27 25 24 22 21 21 20 19 19 19 19 19 18 18 18 18 18 18 18 18 18 18 18
31 32 32 32 32 33 32 33 33 33 32 31 32 31 31 31 30 31 31 30 29 27 26 24 23 22 21 20 19 19 19 19 19 18 18 18 18 18 18 18 18 18 18 18
32 33 33 33 33 33 33 33 32 32 32 30 31 31 30 31 31 31 31 30 29 28 26 24 23 22 21 20 19 19 19 18 18 18 18 18 18 18 18 18 18 18 18 18
31 32 33 33 32 33 32 31 29 29 29 29 30 31 31 32 33 32 32 30 29 28 26 24 23 22 21 20 20 19 19 18 18 18 18 18 18 18 18 18 18 18 18 18
30 30 32 33 32 32 32 31 29 28 28 27 28 29 31 33 33 32 31 30 29 28 26 25 23 22 21 21 20 19 19 18 18 18 18 18 18 18 18 18 18 18 18 18
31 31 33 33 33 32 31 31 32 31 30 29 29 29 30 31 32 31 31 30 28 27 26 24 23 22 21 20 20 19 19 18 18 18 18 18 18 18 18 18 17 17 17 18
32 31 33 33 33 33 32 32 31 30 29 28 29 29 28 29 29 30 30 30 28 27 26 25 23 22 21 20 20 19 19 18 18 18 18 18 18 18 18 18 17 17 17 17
32 30 32 32 31 31 31 31 31 31 30 29 28 27 28 27 28 29 30 29 28 27 26 24 23 22 21 20 19 19 18 18 18 18 18 18 18 17 17 17 17 17 17 17
32 31 30 31 33 33 32 32 31 29 29 30 29 28 28 27 29 29 30 29 28 26 25 24 23 22 21 20 19 19 18 18 18 17 17 17 17 17 17 17 17 17 17 17
31 30 29 30 31 32 32 32 32 31 30 30 29 28 29 29 29 29 28 28 27 26 25 24 23 22 21 20 19 19 18 18 17 17 17 17 17 17 17 17 17 17 17 17
31 30 29 29 30 31 31 31 32 31 30 30 30 28 29 28 27 27 27 26 26 25 24 23 22 21 20 20 19 19 18 18 17 17 17 17 17 17 17 17 16 16 16 16
31 29 29 30 31 31 31 31 31 31 31 30 30 29 27 26 26 26 26 26 25 24 23 22 21 21 20 19 19 18 18 17 17 17 17 16 16 16 16 16 16 16 16 16
29 28 29 29 31 31 31 31 31 31 31 31 30 28 27 25 25 26 26 26 25 24 23 22 21 20 19 19 18 18 17 17 17 16 16 16 16 16 16 16 16 16 16 16
29 27 27 28 30 30 29 31 31 31 32 31 29 28 26 25 25 25 26 25 24 24 23 22 21 20 19 18 18 17 17 17 17 16 16 16 16 16 16 15 15 15 15 15
27 27 27 27 28 27 29 32 32 31 31 31 29 28 26 25 24 24 25 25 24 23 22 21 20 19 18 18 18 17 17 17 16 16 16 16 16 15 15 15 15 15 15 15
28 27 26 27 27 27 29 30 31 30 30 30 29 27 26 24 24 24 23 23 22 22 21 20 20 19 18 18 17 17 17 16 16 16 16 15 15 15 15 15 15 14 14 14
28 27 26 26 26 26 28 30 30 30 28 29 28 27 26 25 25 23 22 21 21 20 19 19 19 18 18 17 17 17 16 16 16 16 15 15 15 15 15 14 14 14 14 13
26 25 25 25 25 27 28 28 28 26 26 26 26 26 25 24 23 21 20 20 19 19 19 18 18 17 17 16 16 16 16 16 15 15 15 15 15 14 14 14 14 13 13 13
25 25 25 25 25 25 27 27 26 24 24 25 24 23 22 21 20 19 19 18 18 18 18 17 17 16 16 16 16 15 15 15 15 15 15 14 14 14 14 13 13 13 13 12
26 25 25 25 25 24 24 24 24 24 23 23 23 22 21 20 19 19 18 18 17 17 16 16 16 15 15 15 15 15 15 15 14 14 14 14 14 13 13 13 13 12 12 12
24 25 25 23 23 24 23 23 23 22 22 22 21 21 20 20 19 18 17 16 16 16 15 15 15 15 15 14 15 14 14 14 14 14 13 13 13 12 12 12 12 11 11 11
22 23 23 23 22 22 22 22 21 21 21 21 21 20 19 19 18 17 16 15 15 15 15 14 14 14 14 14 14 14 13 13 13 13 13 12 12 12 11 11 11 11 10 10
22 21 21 21 22 22 21 20 20 20 20 20 19 19 18 17 16 16 15 14 14 14 14 13 13 13 13 13 13 13 13 13 13 12 12 12 11 11 11 10 10 9 9 9
Wind_Speed
12 13 14 15 15 15 15 14 13 8 5 6 9 9 6 4 4 5 7 9 10 11 11 11 12 12 12 11 12 12 11 11 9 8 8 6 5 5 4 4 8 9 8 8
14 17 18 16 14 13 13 14 14 10 7 7 10 11 7 5 5 6 8 10 10 10 11 12 11 11 12 11 12 12 11 12 11 8 7 5 5 4 4 4 6 9 8 7
20 15 13 15 15 13 13 13 13 12 10 10 12 12 8 4 4 5 7 8 9 12 12 12 12 11 12 12 13 12 11 11 11 10 7 5 4 3 4 4 5 6 7 7
18 20 14 12 14 14 13 13 13 13 12 11 12 9 4 3 5 5 6 8 8 9 12 12 12 11 12 12 12 11 11 11 10 9 9 9 7 6 6 5 5 6 6 7
16 16 16 15 15 14 14 12 11 12 12 13 13 10 4 5 5 5 7 8 9 10 11 12 11 11 11 11 11 11 11 11 10 10 9 9 8 6 5 5 6 7 6 6
19 16 14 15 15 14 13 12 12 12 13 14 14 12 5 4 6 5 8 8 9 9 11 11 10 9 9 10 10 10 10 10 11 10 9 9 9 8 7 6 6 6 5 5
20 20 17 13 14 14 13 11 9 10 10 10 10 9 3 8 6 5 7 9 8 9 10 10 10 9 9 10 10 10 10 9 10 10 9 9 9 8 8 7 7 7 6 6
18 17 19 16 16 14 14 15 12 10 6 3 6 6 3 7 9 7 8 9 8 9 10 10 11 9 9 9 9 9 9 9 9 9 8 8 8 7 6 7 7 7 6 6
13 15 16 17 16 17 16 15 17 15 15 10 8 7 4 4 7 8 8 9 7 8 11 11 10 9 8 8 8 8 8 8 7 7 7 7 7 7 6 6 6 4 4 5
19 12 10 13 12 16 18 15 11 12 11 12 8 3 2 4 4 7 9 10 9 9 10 10 10 9 8 8 7 6 6 6 6 6 6 6 6 6 6 5 6 5 4 4
20 15 13 12 14 15 15 16 13 10 10 11 7 1 1 2 5 8 8 10 11 10 10 9 8 8 8 8 8 7 6 6 6 5 5 5 5 5 5 5 5 5 4 4
17 13 14 14 14 15 15 16 14 11 10 11 10 3 6 7 6 6 9 10 10 10 11 10 9 8 8 8 8 7 6 5 5 4 4 4 4 5 5 5 5 4 5 4
12 11 13 14 14 15 15 15 15 14 11 11 11 3 8 6 6 6 8 9 10 10 10 10 9 7 7 7 7 7 6 6 5 5 4 4 4 4 4 4 4 4 5 5
7 11 15 15 9 10 14 15 15 15 13 13 10 6 6 5 5 5 6 7 10 10 9 9 8 7 7 7 6 6 5 5 5 5 5 4 4 4 4 4 5 5 5 5
8 13 16 18 16 13 13 15 16 16 15 13 7 3 5 8 9 7 7 8 10 10 9 8 7 7 6 6 6 5 5 5 5 5 5 4 5 5 5 5 6 6 6 5
10 12 15 18 19 17 15 14 16 16 15 14 9 3 7 7 6 8 8 9 9 8 8 8 8 8 6 6 5 5 6 6 5 5 5 5 5 5 6 6 6 7 6 6
14 12 14 16 17 17 17 14 14 13 13 11 8 5 11 11 8 5 6 8 9 8 8 8 8 7 6 6 5 6 6 6 6 6 5 6 6 6 6 7 7 7 7 7
9 10 11 15 16 18 12 12 13 12 10 7 5 11 12 11 9 6 5 8 9 8 8 8 8 8 7 6 6 6 6 6 7 6 6 6 7 7 7 7 7 7 7 7
11 9 11 13 16 16 13 10 9 8 7 4 7 12 13 13 11 8 7 9 9 9 9 8 7 8 7 6 6 6 6 6 6 6 6 6 7 8 8 8 7 7 8 8
14 9 12 13 14 14 8 6 6 7 7 2 7 11 12 11 7 7 9 10 9 9 8 7 7 8 7 6 5 5 5 6 5 6 6 6 7 7 8 8 8 8 8 9
17 15 16 17 16 12 5 1 1 6 2 5 7 9 11 7 7 10 10 10 9 8 7 7 7 6 6 5 5 5 5 4 5 6 7 7 7 7 8 8 8 9 10 11
18 16 16 16 17 10 2 4 3 4 5 7 11 12 14 14 14 12 10 9 8 7 7 7 7 6 5 5 5 5 5 5 5 7 7 7 8 7 8 9 9 10 11 12
12 10 8 8 5 5 7 8 7 7 6 8 11 12 13 13 12 10 9 8 7 7 6 5 6 6 6 5 5 5 5 6 7 7 8 8 9 8 8 9 10 9 9 9
4 2 5 4 6 7 8 9 8 8 8 9 10 10 11 11 11 10 9 8 7 5 5 5 5 6 6 5 5 5 5 7 8 8 8 9 10 10 9 8 7 7 7 8
1 2 2 5 8 8 8 8 7 7 8 9 9 9 9 10 10 9 8 7 6 5 5 5 5 6 6 6 5 6 6 7 9 9 9 10 10 10 11 11 9 8 7 7
2 1 2 2 3 5 8 9 8 7 7 8 9 9 9 9 9 9 8 7 7 6 6 6 7 7 6 6 7 6 6 7 9 9 9 9 9 9 11 12 13 19 15 17
Wind_Direction
219 233 241 243 240 255 280 295 295 291 273 271 281 282 261 213 211 174 161 160 164 165 160 156 159 164 166 168 169 170 173 168 169 176 180 185 186 185 180 173 162 167 179 174
229 232 242 256 263 265 274 280 282 282 274 271 280 280 267 225 206 180 174 169 162 158 158 157 160 166 170 172 173 174 176 173 176 181 180 180 179 188 188 184 160 171 173 177
231 242 234 240 254 258 263 266 275 283 285 270 269 269 252 241 221 180 171 160 162 160 161 164 168 173 172 173 175 178 178 178 182 177 172 177 172 186 192 174 169 177 175 185
237 248 254 251 251 252 258 260 267 275 277 276 273 271 233 197 211 188 163 155 157 158 162 164 171 175 175 174 173 172 175 178 181 179 180 181 188 193 192 179 175 182 184 186
238 238 243 246 250 252 259 275 276 273 272 272 272 271 240 174 203 183 162 159 150 159 164 159 169 173 174 172 171 172 171 176 180 187 188 192 195 193 187 178 179 185 186 188
249 247 238 244 246 247 256 265 267 263 263 258 257 259 237 161 168 162 144 143 142 151 150 150 157 155 161 167 170 170 172 178 181 188 192 195 195 190 186 185 184 188 187 193
241 246 243 238 244 237 233 243 250 246 243 258 273 258 223 143 141 129 133 134 138 138 139 141 145 152 159 167 169 171 173 178 181 187 193 194 198 196 195 192 194 194 193 198
229 233 229 228 232 242 227 232 242 259 259 281 294 267 221 136 121 120 125 128 140 143 140 140 146 154 158 164 166 168 171 177 182 188 193 196 195 198 203 201 200 200 204 199
239 232 217 212 220 235 238 234 248 262 270 260 216 208 153 119 133 138 133 130 130 133 136 139 145 148 150 155 155 162 162 171 181 188 188 190 190 195 199 195 203 204 200 195
256 266 228 202 211 224 243 243 244 257 272 276 257 218 178 165 158 155 147 138 133 141 140 139 142 143 146 146 141 143 147 159 170 177 182 184 186 189 190 192 194 196 194 188
238 253 248 212 209 223 220 240 250 263 265 270 273 224 142 192 209 174 156 141 144 143 127 124 131 136 137 136 139 141 139 148 160 167 169 173 178 183 184 187 187 184 177 164
220 236 249 234 218 221 229 229 231 243 259 271 278 204 174 191 196 169 142 129 123 123 124 130 135 135 138 139 139 137 141 147 149 151 157 169 171 172 174 178 180 176 166 159
213 230 240 242 229 215 225 227 229 234 248 258 266 160 178 165 142 125 114 116 120 121 124 128 132 136 134 131 132 137 144 143 144 148 153 155 162 165 167 170 170 161 155 152
226 227 237 240 234 221 225 232 229 233 240 245 252 184 174 112 93 108 120 131 131 126 123 125 128 126 120 120 121 130 134 133 139 141 139 138 141 142 146 147 142 137 134 132
235 230 238 256 265 255 237 231 232 233 242 252 256 198 152 148 142 153 156 144 130 129 129 127 128 121 123 122 122 122 118 117 123 128 133 137 129 128 128 125 124 122 119 123
225 248 245 248 257 258 249 234 232 234 234 243 243 192 121 112 127 154 156 143 136 134 133 131 131 127 127 126 130 125 122 120 120 125 127 126 124 122 121 118 113 112 112 111
215 226 249 253 250 253 248 245 245 242 243 244 240 169 140 141 139 158 153 143 138 134 133 129 126 126 128 129 129 130 127 127 125 123 123 124 125 123 118 117 112 108 107 105
229 215 229 249 256 252 254 254 248 243 242 238 155 130 129 128 125 121 126 128 125 122 118 116 119 117 119 124 125 132 134 131 131 131 130 128 126 122 118 115 114 112 108 107
230 228 234 241 245 247 249 249 247 243 235 195 140 126 131 131 126 107 96 99 101 104 104 107 114 120 121 121 122 129 133 134 136 135 131 132 131 127 125 123 120 117 113 107
230 223 233 241 247 247 251 265 271 243 217 176 136 140 147 150 159 128 109 101 96 93 99 104 103 105 108 106 113 127 134 135 137 134 133 131 129 127 128 126 122 117 112 109
218 217 224 236 245 251 257 131 266 236 198 88 106 128 136 121 101 115 111 102 98 96 99 102 102 102 102 106 108 112 110 110 111 117 120 122 123 124 124 121 119 116 112 107
212 214 219 230 238 241 358 159 169 97 56 84 93 96 101 103 108 112 111 109 105 99 95 96 99 98 97 104 113 113 108 103 103 106 110 113 116 118 119 119 118 117 118 114
214 214 216 221 218 91 72 86 90 98 88 79 92 102 112 116 118 117 113 107 103 96 92 93 100 100 92 91 104 113 112 112 109 108 108 107 106 103 108 117 121 120 117 117
218 193 182 149 129 111 96 90 87 85 92 93 98 103 113 118 121 119 113 104 97 90 93 99 102 97 93 91 93 100 104 108 114 114 111 111 109 102 94 93 98 105 112 117
322 282 196 158 139 122 108 101 99 94 103 104 105 106 111 115 118 115 110 106 104 99 86 88 93 96 91 91 93 100 108 113 113 113 112 109 104 102 92 81 70 82 77 104
250 228 196 160 128 129 128 122 127 124 112 108 108 108 109 114 117 116 111 105 102 96 90 90 91 96 93 91 95 101 109 122 126 122 116 112 112 108 105 100 84 63 72 76
Height
1480 1482 1479 1471 1465 1464 1462 1462 1462 1454 1448 1453 1456 1455 1452 1454 1457 1461 1467 1472 1478 1482 1487 1490 1493 1496 1499 1501 1503 1506 1510 1513 1517 1521 1524 1528 1532 1535 1538 1540 1542 1545 1547 1550
1477 1477 1468 1462 1458 1459 1462 1467 1463 1454 1448 1452 1456 1454 1449 1451 1455 1459 1464 1470 1475 1481 1485 1489 1492 1494 1496 1498 1501 1504 1508 1511 1515 1518 1522 1526 1530 1533 1535 1538 1540 1543 1545 1548
1473 1463 1457 1460 1461 1464 1464 1466 1462 1459 1451 1450 1455 1459 1453 1451 1454 1458 1462 1467 1473 1478 1483 1487 1490 1493 1495 1497 1499 1502 1505 1509 1513 1517 1521 1525 1528 1530 1533 1536 1538 1541 1543 1546
1463 1458 1456 1459 1461 1461 1467 1456 1456 1457 1461 1463 1458 1472 1458 1454 1456 1457 1460 1465 1470 1476 1481 1485 1489 1491 1494 1496 1498 1501 1504 1507 1511 1515 1518 1521 1524 1527 1530 1533 1536 1539 1541 1544
1458 1455 1456 1460 1458 1456 1458 1451 1453 1456 1461 1465 1459 1466 1463 1454 1460 1457 1459 1463 1468 1474 1479 1483 1487 1489 1492 1495 1497 1500 1502 1505 1508 1512 1515 1518 1521 1524 1527 1530 1533 1536 1539 1541
1451 1447 1448 1451 1450 1451 1452 1454 1456 1457 1461 1476 1464 1466 1466 1455 1455 1454 1456 1462 1467 1472 1477 1481 1486 1488 1491 1494 1497 1499 1501 1503 1506 1509 1512 1515 1518 1521 1524 1527 1530 1533 1536 1538
1456 1448 1444 1446 1451 1450 1453 1466 1479 1482 1481 1480 1460 1461 1458 1445 1445 1450 1455 1461 1467 1472 1476 1481 1485 1488 1490 1493 1495 1497 1499 1501 1504 1507 1509 1512 1515 1518 1521 1524 1527 1530 1532 1535
1458 1457 1443 1443 1449 1452 1453 1460 1480 1489 1488 1487 1475 1471 1455 1441 1445 1450 1455 1461 1466 1471 1476 1480 1484 1487 1490 1492 1494 1495 1497 1500 1502 1505 1507 1510 1513 1515 1518 1521 1524 1527 1529 1532
1445 1448 1431 1435 1439 1445 1452 1454 1449 1461 1465 1474 1471 1461 1452 1444 1446 1451 1455 1461 1466 1470 1475 1479 1483 1486 1489 1491 1493 1494 1496 1498 1501 1503 1505 1507 1510 1513 1516 1518 1521 1524 1527 1529
1437 1444 1431 1430 1436 1439 1442 1444 1452 1461 1476 1481 1470 1467 1466 1457 1454 1454 1456 1460 1466 1471 1475 1479 1483 1486 1489 1491 1493 1494 1496 1497 1499 1501 1503 1505 1507 1510 1512 1515 1518 1521 1523 1526
1434 1444 1438 1433 1440 1443 1446 1449 1450 1452 1455 1471 1477 1477 1457 1459 1455 1454 1456 1459 1465 1469 1474 1479 1482 1486 1489 1490 1492 1494 1495 1497 1498 1500 1502 1504 1505 1507 1510 1512 1515 1518 1520 1523
1430 1438 1443 1435 1427 1429 1435 1441 1447 1463 1463 1458 1465 1470 1451 1453 1453 1453 1455 1459 1465 1470 1474 1478 1482 1485 1488 1490 1492 1494 1495 1496 1498 1499 1501 1502 1504 1506 1507 1509 1512 1515 1518 1520
1427 1438 1453 1450 1440 1431 1433 1434 1437 1443 1451 1457 1464 1468 1448 1449 1452 1454 1457 1462 1467 1471 1475 1479 1482 1485 1488 1490 1492 1493 1495 1496 1497 1498 1500 1501 1503 1505 1506 1508 1510 1512 1515 1517
1426 1435 1445 1451 1442 1433 1436 1434 1433 1440 1450 1454 1453 1457 1451 1452 1455 1457 1461 1464 1468 1472 1475 1479 1482 1485 1487 1490 1492 1493 1494 1496 1497 1498 1499 1500 1502 1503 1505 1507 1509 1511 1513 1515
1427 1436 1437 1433 1428 1428 1430 1432 1432 1436 1439 1446 1447 1450 1453 1454 1457 1462 1464 1466 1469 1473 1476 1479 1483 1485 1488 1490 1492 1493 1494 1495 1496 1497 1498 1500 1501 1503 1505 1506 1508 1510 1512 1514
1429 1436 1436 1437 1429 1426 1428 1427 1428 1430 1431 1435 1439 1448 1450 1455 1458 1462 1465 1467 1470 1473 1477 1480 1483 1486 1488 1490 1491 1493 1494 1495 1496 1497 1498 1500 1501 1503 1504 1506 1507 1509 1511 1513
1429 1439 1445 1443 1431 1430 1437 1427 1426 1426 1425 1429 1439 1444 1448 1454 1459 1464 1465 1467 1470 1473 1477 1480 1483 1486 1488 1490 1491 1493 1494 1495 1496 1497 1499 1500 1501 1503 1504 1506 1508 1509 1511 1513
1431 1436 1441 1443 1442 1454 1432 1417 1418 1422 1425 1426 1433 1439 1446 1453 1460 1463 1464 1467 1471 1474 1477 1480 1483 1485 1487 1489 1491 1492 1494 1495 1496 1497 1499 1500 1502 1502 1504 1506 1508 1509 1511 1513
1426 1434 1440 1443 1446 1441 1428 1420 1420 1426 1430 1428 1433 1441 1448 1454 1460 1465 1467 1469 1472 1475 1478 1480 1483 1485 1487 1489 1490 1492 1494 1495 1496 1498 1499 1501 1502 1503 1504 1506 1508 1510 1511 1513
1426 1430 1440 1442 1449 1449 1432 1420 1420 1425 1437 1432 1434 1441 1447 1452 1458 1466 1469 1471 1474 1477 1479 1481 1483 1485 1486 1488 1490 1492 1494 1495 1496 1497 1499 1501 1502 1503 1505 1506 1508 1510 1512 1514
1431 1434 1439 1442 1444 1436 1423 1422 1426 1443 1443 1436 1437 1442 1447 1452 1458 1466 1469 1472 1475 1477 1480 1482 1483 1485 1486 1488 1490 1491 1493 1495 1496 1497 1499 1500 1502 1503 1505 1506 1508 1510 1512 1514
1426 1433 1437 1438 1444 1444 1427 1427 1434 1441 1440 1439 1442 1447 1451 1456 1462 1467 1470 1473 1476 1478 1480 1482 1483 1484 1486 1488 1489 1490 1492 1494 1495 1496 1498 1500 1501 1503 1504 1506 1508 1510 1512 1514
1418 1422 1424 1430 1436 1435 1433 1435 1438 1440 1442 1444 1447 1452 1455 1460 1464 1468 1471 1474 1476 1479 1480 1482 1483 1484 1486 1487 1488 1489 1491 1493 1494 1496 1497 1499 1500 1502 1504 1506 1508 1510 1512 1514
1419 1418 1423 1429 1433 1434 1436 1439 1442 1444 1446 1449 1451 1455 1458 1462 1465 1469 1472 1474 1477 1478 1480 1481 1483 1484 1485 1486 1487 1488 1490 1491 1493 1494 1496 1498 1500 1502 1504 1506 1508 1510 1512 1515
1424 1423 1423 1428 1433 1436 1439 1442 1445 1448 1450 1452 1454 1458 1461 1463 1467 1469 1472 1475 1477 1478 1480 1481 1482 1483 1484 1485 1486 1487 1489 1490 1492 1494 1496 1498 1500 1502 1504 1506 1509 1511 1514 1516
1428 1429 1431 1434 1434 1436 1441 1444 1447 1450 1452 1455 1457 1460 1463 1465 1468 1470 1473 1475 1477 1478 1479 1481 1481 1482 1484 1485 1486 1487 1488 1490 1492 1494 1496 1498 1500 1502 1504 1507 1510 1513 1516 1518